www.pogodaiklimat.ru

Погода и климат >> Архив погоды >> Россия >> Забайкальский край >> Кыра


АРХИВ ПОГОДЫ в Кыре

Время (UTC), дата Ветер
(напр.,м/с)
 
Видим.   Явления Облачность Т
(С)
Тd
(С)
f
(%)
Тe
(С)
Тes
(С)
Комфортность P
(гПа)
Po
(гПа)
Тmin
(С)
Tmax
(С)
R
(мм)
R24
(мм)
S
(см)
18 19.05 З 3 н/о ясно +1.6 -2.8 73 -2 -2 1016.7 909.4
21 19.05 ЮЗ 1 50 км 3/0
[Ac lent Ci fib]
-2.5 -5.5 80 -5 -5 1018.1 909.1
00 20.05 СЗ 4 50 км 3/0
[Ac lent]
+8.0 -6.5 35 +6 +8 1013.6 908.9 -3.1
03 20.05 СЗ 5
{11}
50 км 1/1 1000 м
[Cu hum]
+12.8 -6.5 25 +11 +18 1010.1 907.4
06 20.05 СЗ 6-11
{13}
50 км 1/1 1000 м
[Cu hum]
+15.7 -9.8 16 +15 +20 1007.2 905.7
09 20.05 СЗ 4
{13}
50 км ясно +17.2 -12.2 12 +17 +21 1005.5 904.7
12 20.05 С 3
{13}
50 км ясно +14.2 -12.2 15 +14 +14 1007.2 905.2 +17.4
15 20.05 СЗ 1 н/о ясно +3.8 -9.8 36 +3 +3 1012.4 906.3
18 20.05 штиль 0 н/о ясно -0.6 -9.4 51 -1 -1 1014.9 906.9
21 20.05 СВ 1 50 км ясно -3.9 -9.9 63 -6 -6 1016.5 907.1
00 21.05 З 1 50 км 1/0
[Ac lent]
+7.2 -8.4 32 +7 +13 1011.5 906.7 -4.1
03 21.05 ЮЗ 2 50 км 6/0
[Ac lent Ci fib]
+17.3 -11.5 13 +18 +28 1005.4 904.6
06 21.05 З 5-10
{11}
50 км 9/0
[Ac lent Cc]
+20.4 -11.0 11 +20 +25 1002.1 902.7
09 21.05 С 5-10
{11}
50 км 6/0
[Ac lent Cc]
+22.5 -10.2 10 +20 +23 999.8 901.3
12 21.05 С 2
{10}
50 км 8/0
[Ac trans Cc]
+15.9 -7.8 19 +16 +16 1002.5 901.6 +22.9
15 21.05 СВ 1 н/о 8/3 1000 м
[Sc Ac trans Ci fib]
+9.9 -6.4 31 +10 +10 1005.5 902.3
18 21.05 С 1 н/о 8/3 1000 м
[Sc Ac trans]
+4.2 -5.6 49 +4 +4 1007.4 902.0
21 21.05 СВ 1 50 км 4/0
[Ac trans Ci fib]
+0.1 -5.9 64 -1 -1 1009.0 901.9
00 22.05 ЮЗ 1 50 км 4/0
[Ac lent Ci fib]
+11.0 -4.1 34 +11 +16 1003.7 901.1 -0.2
03 22.05 СВ 1 50 км 6/0
[Ac lent Ci fib]
+23.0 -5.0 15 +21 +34 комфорт 996.7 898.6
06 22.05 З 2 50 км 6/3 1000 м
[Cu hum Ac trans Ci fib]
+28.3 -5.1 11 +25 +34 комфорт 991.8 895.8
09 22.05 В 4 50 км 6/3 1000 м
[Cu med, cong Ac trans Ci fib]
+29.1 -4.4 11 +26 +28 жарко 989.5 894.0
12 22.05 С 1 50 км 6/3 1000 м
[Cb cap Ac trans Ci fib]
+24.3 -1.3 18 +23 +23 комфорт 991.3 894.3 +29.4
15 22.05 штиль 0 н/о ясно +11.2 +0.7 48 +11 +11 997.8 895.9
18 22.05 С 1 н/о 8/0
[Ci fib]
+8.3 +0.1 56 +8 +8 1000.3 897.2
21 22.05 ЮЗ 2 50 км 8/3 1000 м
[Sc Ci fib]
+7.4 -0.6 57 +6 +6 1002.2 898.5
00 23.05 ЮЗ 2 50 км 3/0
[Ci fib]
+18.6 +0.8 30 +19 +25 997.3 897.9 +7.1
03 23.05 ЮВ 5 50 км 8/0
[Ac lent Ci]
+25.5 +1.3 21 +24 +30 комфорт 993.8 896.9
06 23.05 Ю 4 50 км 9/3 1000 м
[Cu hum Ac trans Ci]
+29.3 -0.2 15 +27 +31 жарко 989.4 894.1
09 23.05 ЮЗ 3 50 км 9/4 1000 м
[Cb cap Ac trans Ci]
+30.0 -1.4 13 +27 +29 жарко 986.9 892.0
12 23.05 С 1
{10}
50 км 9/3 1000 м
[Cb cap Ac trans Ci]
+25.1 +2.3 23 +24 +24 комфорт 988.5 892.1 +30.8
15 23.05 ЮЗ 1 н/о 6/0
[Ac trans Ci fib]
+16.7 +3.8 42 +18 +18 994.9 895.2
18 23.05 С 3
{12}
н/о ясно +14.9 -2.0 31 +14 +14 1000.1 899.2
21 23.05 В 2
{13}
50 км 6/4 1000 м
[Sc Ci fib]
+12.4 -3.8 32 +12 +12 1002.4 900.4
00 24.05 С 5
{12}
50 км 9/4 1000 м
[Cb cap Ac trans Ci]
+12.3 -0.7 41 +10 +11 1005.2 902.9 +11.8
03 24.05 З 1
{13}
4000 м слаб. ливневой дождь 9/6 1000 м
[Cb cap Ac trans]
+7.0 +3.4 78 +6 +10 1010.0 905.4 +6.7
06 24.05 ЮЗ 2 50 км {ливн. осадки} 10/4 1000 м
[Sc Ac und]
+9.6 +3.1 64 +8 +11 1007.8 904.4
09 24.05 С 4
{13}
50 км 10/4 1000 м
[Cb cap Ac und Ci]
+10.0 +0.6 52 +8 +9 1009.0 905.6
12 24.05 З 2 50 км 9/6 1000 м
[Cb cap Ac trans]
+9.2 +1.3 58 +8 +8 1009.1 905.4 +13.0 3
15 24.05 С 1 н/о 9/4 1000 м
[Cb cap Ac trans]
+8.6 -0.8 52 +8 +8 1009.0 905.0
18 24.05 З 2 н/о 9/4 1000 м
[Cb cap Ac trans]
+7.9 +0.7 60 +6 +6 1009.9 905.6
21 24.05 ЮЗ 2 50 км 9/4 1000 м
[Cb cap Ac trans]
+6.0 +1.4 72 +4 +4 1011.1 906.1
00 25.05 ЮЗ 2 50 км 9/4 1000 м
[Sc Ac trans]
+9.2 -1.3 48 +8 +10 1011.7 907.7 +5.8
03 25.05 ЮЗ 2 50 км 9/5 1000 м
[Cb cap Ac trans]
+13.3 -4.6 28 +13 +17 1011.4 908.7
06 25.05 СЗ 5 50 км 9/4 1000 м
[Cb cap Ac trans]
+13.1 -3.1 32 +11 +14 1012.4 909.6
09 25.05 СЗ 2 50 км 9/4 1000 м
[Cb cap Ac trans]
+11.3 -0.5 44 +11 +12 1014.4 910.9
12 25.05 Ю 1 50 км 8/4 1000 м
[Sc Ac trans]
+10.1 -0.1 49 +10 +10 1016.3 912.2 +14.3
15 25.05 СЗ 1 н/о 8/3 1000 м
[Sc Ac trans Ci fib]
+5.9 +0.1 66 +5 +5 1019.8 913.8
18 25.05 С 1 н/о 3/0
[Ac lent Ci fib]
+1.8 -1.6 78 0 0 1022.2 914.5
21 25.05 С 1 50 км 4/0
[Ac lent Ci]
-1.1 -3.4 84 -3 -3 1025.1 915.9
00 26.05 ЮЗ 2 50 км 8/3 1000 м
[Cu hum Ac trans Ci fib]
+10.2 -5.6 32 +9 +12 1021.3 916.6 -1.2
03 26.05 З 2 50 км 6/4 1000 м
[Cu med, cong Ci fib]
+15.2 -9.8 17 +15 +24 1018.8 916.0
06 26.05 СЗ 2
{12}
50 км 6/4 1000 м
[Cu med, cong Ci fib]
+17.1 -14.4 10 +18 +26 1017.1 915.0
09 26.05 СЗ 3
{11}
50 км 8/4 1000 м
[Cu med, cong Ci fib]
+16.7 -14.1 11 +17 +19 1016.6 914.4
12 26.05 С 3
{10}
50 км 3/3 1000 м
[Sc diur, vesp]
+13.6 -12.4 15 +13 +13 1018.9 915.5 +17.7
15 26.05 С 1 н/о ясно +3.7 -10.1 36 +3 +3 1024.5 917.1

 

Местоположение метеостанции Кыра (Забайкальский край, Россия): широта 49.57 долгота 111.90 высота над уровнем моря 908 м.

В архиве по умолчанию представлена погода в Кыре за последнюю неделю. Архивные данные за месяц целиком и за предыдущие месяцы, начиная с января 2011 года, Вы можете получить, выбрав интересующий диапазон дат из раскрывающегося списка и нажав кнопку "Ввод!".


*Определитесь, кто Вы:
робот инопланетянин человек

Внимание! Время в таблицах - всемирное. Для получения местного времени необходимо прибавить поправку, которая равна 9 ч.

Смотрите также архив погоды в соседних городах и на ближайших метеорологических станциях:

Погода в Мангуте (Забайкальский край, Россия) (52 км)
Погода в Букукуне (Забайкальский край, Россия) (59 км)
Погода в Татаале (Монголия) (87 км)
Погода в Акше (Забайкальский край, Россия) (121 км)
Погода в Биндэре (Монголия) (142 км)
Погода в Дульдурге (Забайкальский край, Россия) (168 км)
Погода в Черемхово (Забайкальский край, Россия) (171 км)
Погода в Дашбалбаре (Монголия) (180 км)
Погода в Баян-Ову (Монголия) (200 км)
Погода в Улетах (Забайкальский край, Россия) (201 км)

Пояснения к столбцам:

Ветер - указаны скорость ветра в м/с - средняя за 10 мин, порывы в срок и между сроками (в фигурных скобках) и направление, откуда дует ветер: С - северный, СВ - северо-восточный, В - восточный, ЮВ - юго-восточный, Ю - южный, ЮЗ - юго-западный, З - западный, СЗ - северо-западный.
Видимость - горизонтальная дальность видимости в метрах или километрах. При видимости от 1 до 10 км при отсутствии осадков обычно наблюдается дымка, при ухудшении видимости до 1 км и менее - туман. В сухую погоду видимость может ухудшаться дымом, пылью или мглою.
Явления - указаны атмосферные явления, наблюдавшиеся в срок или в последний час перед сроком; фигурными скобками обозначены явления, наблюдавшиеся между сроками (за 1-3 часа до срока); квадратными скобками обозначены град или гололедные отложения с указанием их диаметра в мм.
Облачность - указаны через наклонную черту общая и нижняя облачность в баллах и высота нижней границы облаков в метрах; квадратными скобками обозначены формы облаков: Ci - перистые, Cs - перисто-слоистые, Cc - перисто-кучевые, Ac - высококучевые, As - высокослоистые, Sc - слоисто-кучевые, Ns - слоисто-дождевые, Cu - кучевые, Cb - кучево-дождевые. Подробнее классификацию облаков см. в Атласе облаков (PDF).
T - Температура воздуха - температура, измеренная на высоте 2 м над землей.
Td - Температура точки росы - температура, при понижении до которой содержащийся в воздухе водяной пар достигнет насыщения.
f - Относительная влажность воздуха - влажноcть воздуха, измеренная на высоте 2 м над землей.
Te - Эффективная температура - температура, которую ощущает одетый по сезону человек в тени. Характеристика душности погоды. При расчете учитывается влияние влажности воздуха и скорости ветра на теплоощущения человека.
Tes - Эффективная температура на солнце - температура, которую ощущает человек, с поправкой на солнечный нагрев. Характеристика знойности погоды. Зависит от высоты солнца над горизонтом, облачности и скорости ветра. Ночью, в пасмурную погоду, а также при ветре 12 м/с и более поправка равна нулю.
P - Атмосферное давление - приведенное к уровню моря атмосферное давление.
Po - Атмосферное давление - измеренное на уровне метеостанции атмосферное давление.
Tmin - Минимальная температура - минимум температуры воздуха на высоте 2 м над землей.
Tmax - Максимальная температура - максимум температуры воздуха на высоте 2 м над землей.
R - Количество осадков - Количество выпавших осадков за период времени, мм. При наведении курсора мыши на число - период времени, за который выпало указанное количество осадков.
R24 - Количество осадков - Количество выпавших осадков за 24 часа, мм.
S - Снежный покров - Высота снежного покрова, см. При наведении курсора мыши на число - состояние снежного покрова и степень покрытия местности в баллах.